Вернуться в каталог

STARLINK-34131

АктивенСвязьVLEO
NORAD 64182·PAYLOAD·🇺🇸 United States

Запущен May 28, 2025 с Cape Canaveral Space Force Station

Loading…

Ближайшие Пролёты (ближайшие 24 часа)

TLE

СвежийSource: CelesTrak SupGP

Эпоха: Sep 15, 2026, 02:30 UTC

1 64182C 25113N   26258.10465278  .00024836  00000+0  73378-3 0  2580
2 64182  53.1585 290.7609 0001192  86.4904 257.6594 15.34378114    13

Отслеживайте STARLINK-34131 в реальном времени с AllMySat

Download on the App Store